This is the latest recevied weather packets stored in our database for station/object PA1CD-13. If no packets are shown the sender has not sent any weather packets the latest 10 day(s).
| Time | Temp. | Humidity | Pressure | Rain* | Wind** | Luminosity | Snow |
|---|---|---|---|---|---|---|---|
| 1777465685 | 16.67° C | 47% | 1027.3 hPa | 0 mm | - | 775 W/m² | - |
| 1777465564 | 16.67° C | 47% | 1027.3 hPa | 0 mm | - | 781 W/m² | - |
| 1777465445 | 16.67° C | 47% | 1027.2 hPa | 0 mm | - | 779 W/m² | - |
| 1777465204 | 16.67° C | 48% | 1027.2 hPa | 0 mm | - | 781 W/m² | - |
| 1777465083 | 16.67° C | 48% | 1027.3 hPa | 0 mm | - | 781 W/m² | - |
| 1777464964 | 16.67° C | 48% | 1027.2 hPa | 0 mm | - | 784 W/m² | - |
| 1777464843 | 16.67° C | 48% | 1027.3 hPa | 0 mm | - | 784 W/m² | - |
| 1777464724 | 16.67° C | 48% | 1027.3 hPa | 0 mm | - | 782 W/m² | - |
| 1777464605 | 16.67° C | 48% | 1027.3 hPa | 0 mm | - | 786 W/m² | - |
| 1777464484 | 16.67° C | 47% | 1027.3 hPa | 0 mm | - | 779 W/m² | - |
| 1777464366 | 16.67° C | 47% | 1027.3 hPa | 0 mm | - | 779 W/m² | - |
| 1777464245 | 16.67° C | 45% | 1027.3 hPa | 0 mm | - | 782 W/m² | - |
| 1777464125 | 16.67° C | 45% | 1027.4 hPa | 0 mm | - | 774 W/m² | - |
| 1777464007 | 16.67° C | 46% | 1027.5 hPa | 0 mm | - | 774 W/m² | - |
| 1777463886 | 16.67° C | 46% | 1027.6 hPa | 0 mm | - | 793 W/m² | - |
| 1777463765 | 16.67° C | 44% | 1027.5 hPa | 0 mm | - | 789 W/m² | - |
| 1777463644 | 16.67° C | 44% | 1027.5 hPa | 0 mm | - | 788 W/m² | - |
| 1777463524 | 16.67° C | 44% | 1027.6 hPa | 0 mm | - | 788 W/m² | - |
| 1777463406 | 16.67° C | 46% | 1027.5 hPa | 0 mm | - | 789 W/m² | - |
| 1777463284 | 16.67° C | 45% | 1027.5 hPa | 0 mm | - | 788 W/m² | - |
| 1777463164 | 16.67° C | 48% | 1027.5 hPa | 0 mm | - | 788 W/m² | - |
| 1777463045 | 16.67° C | 48% | 1027.5 hPa | 0 mm | - | 788 W/m² | - |
| 1777462924 | 16.67° C | 49% | 1027.5 hPa | 0 mm | - | 788 W/m² | - |
| 1777462817 | 16.67° C | 49% | 1027.4 hPa | 0 mm | - | 786 W/m² | - |
| 1777462684 | 16.67° C | 49% | 1027.6 hPa | 0 mm | - | 786 W/m² | - |
* Rain latest hour (hover to see other rain measurements)
** Current wind speed in m/s (hover to see current wind gust speed)